Home   Weather   Nelson   Past weeks

Flag for Canada Past Weather in Nelson, British Columbia, Canada — Yesterday and Last 2 Weeks

Now
58 °F

Refreshingly cool.


Feels Like: 56 °F
Forecast: 35 / 48 °F
Wind: 7 mph from South

Location: Nelson

Current Time: Apr 24, 2017 at 4:30:54 pm

Latest Report: Apr 24, 2017 at 4:00 pm


Visibility: N/A

Pressure: 29.64 "Hg (27.73 "Hg at 560m altitude)

Humidity: 51%

Dew Point: 40 °F

Location of NelsonLocation

Past Weather in Nelson — Graph

°F

Nelson Temperature Yesterday

Maximum temperature yesterday: 52 °F (at 12:00 pm)
Minimum temperature yesterday: 39 °F (at 5:00 am)
Average temperature yesterday: 45 °F

High & Low Weather Summary for the Past Weeks

 TemperatureHumidityPressure
High62 °F (Apr 21, 2:00 pm)100% (Apr 10, 2:00 am)30.37 "Hg (Apr 10, 2:00 am)
Low31 °F (Apr 10, 7:00 am)27% (Apr 16, 4:00 pm)29.65 "Hg (Apr 24, 1:00 pm)
Average44 °F77%30.01 "Hg
* Reported Apr 9 3:00 pm — Apr 24 3:00 pm, Nelson, Weather by CustomWeather, © 2017

Note: Actual official high and low records may vary slightly from our data, if they occured in-between our weather recording intervals... More about our weather records

Advertising

Nelson Weather History for the Previous 24 Hours

Scroll right to see more
 ConditionsComfort  
Time TempWeatherWind HumidityBarometerVisibility
3:00 pm
Mon, Apr 24
53 °FCool.7 mph56%29.66 "HgN/A
2:00 pm53 °FCool.5 mph63%29.66 "HgN/A
1:00 pm57 °FRefreshingly cool.5 mph58%29.65 "HgN/A
12:00 pm49 °FCool.2 mph74%29.67 "HgN/A
11:00 am48 °FCool.2 mph81%29.69 "HgN/A
10:00 am48 °FCool.2 mph75%29.69 "HgN/A
9:00 am44 °FQuite cool.3 mph87%29.70 "HgN/A
8:00 am43 °FQuite cool.2 mph91%29.70 "HgN/A
7:00 am42 °FQuite cool.2 mph93%29.70 "HgN/A
6:00 am41 °FQuite cool.2 mph93%29.71 "HgN/A
5:00 am38 °FChilly.1 mph99%29.71 "HgN/A
4:00 am40 °FQuite cool.1 mph91%29.72 "HgN/A
3:00 am41 °FQuite cool.2 mph93%29.72 "HgN/A
2:00 am40 °FQuite cool.3 mph98%29.74 "HgN/A
1:00 am42 °FQuite cool.3 mph92%29.75 "HgN/A
12:00 am43 °FQuite cool.3 mph93%29.76 "HgN/A
11:00 pm
Sun, Apr 23
42 °FQuite cool.3 mph86%29.76 "HgN/A
10:00 pm42 °FQuite cool.5 mph98%29.76 "HgN/A
9:00 pm42 °FQuite cool.2 mph98%29.78 "HgN/A
8:00 pm45 °FCool.2 mph89%29.78 "HgN/A
7:00 pm46 °FCool.3 mph89%29.78 "HgN/A
6:00 pm46 °FCool.3 mph89%29.81 "HgN/A
5:00 pm49 °FCool.3 mph78%29.80 "HgN/A
4:00 pm48 °FCool.2 mph77%29.80 "HgN/A
Weather by CustomWeather, © 2017

See weather overviewHow to use our weather pages